Home > Weather > Monterey > Past weeks

Flag for USA Weather for the Past 2 Weeks in Monterey, California, USA

Now
60 °F

Sunny.


Feels Like: 60 °F
Forecast: 51 / 65 °F
Wind: No wind

Location: Monterey Peninsula Airport

Current Time: Apr 30, 2016 at 10:15:29 AM

Latest Report: Apr 30, 2016 at 8:54 AM


Visibility: 10 mi

Pressure: 29.96 "Hg

Humidity: 60%

Dew Point: 46 °F

Location of MontereyLocation

Historic Weather in Monterey — Graph

°F

Monterey Temperature Yesterday

Maximum temperature yesterday: 57 °F (at 1:54 PM)
Minimum temperature yesterday: 51 °F (at 1:54 AM)
Average temperature yesterday: 53 °F

High & Low Weather Summary for the Past Weeks

 TemperatureHumidityPressure
High84 °F (Apr 18, 1:54 PM)93% (Apr 23, 4:54 AM)30.26 "Hg (Apr 23, 4:54 AM)
Low47 °F (Apr 20, 4:54 AM)12% (Apr 18, 1:54 PM)29.91 "Hg (Apr 22, 8:04 AM)
Average58 °F65%30.06 "Hg
* Reported Apr 15 8:54 AM — Apr 30 8:54 AM, Monterey, Weather by CustomWeather, © 2016

Note: Actual official high and low records may vary slightly from our data, if they occured in-between our weather recording intervals... More about our weather records

Advertising

Monterey Weather History for the Previous 24 Hours

Scroll right to see more
 ConditionsComfort  
Time TempWeatherWind HumidityBarometerVisibility
8:54 AM
Sat, Apr 30
60 °FSunny.No wind60%29.96 "Hg10 mi
7:54 AM54 °FSunny.No wind74%29.96 "Hg10 mi
6:54 AM48 °FClear.No wind89%29.97 "Hg10 mi
5:54 AM47 °FClear.3 mph90%29.96 "Hg10 mi
4:54 AM49 °FPassing clouds.No wind86%29.96 "Hg9 mi
3:54 AM50 °FLow clouds.3 mph89%29.96 "Hg7 mi
2:54 AM50 °FLow clouds.6 mph93%29.98 "Hg7 mi
1:54 AM51 °FLow clouds.9 mph89%29.99 "Hg7 mi
12:54 AM52 °FOvercast.14 mph86%29.99 "Hg8 mi
11:54 PM
Fri, Apr 29
52 °FOvercast.14 mph83%30.01 "Hg10 mi
10:54 PM52 °FOvercast.13 mph83%30.04 "Hg10 mi
9:54 PM53 °FOvercast.14 mph80%30.05 "Hg10 mi
8:54 PM53 °FOvercast.15 mph80%30.05 "Hg10 mi
7:54 PM53 °FOvercast.9 mph80%30.06 "Hg10 mi
7:04 PM55 °FScattered clouds.16 mph74%30.02 "Hg10 mi
6:54 PM55 °FPartly sunny.13 mph74%30.06 "Hg10 mi
6:01 PM55 °FOvercast.10 mph74%30.04 "Hg10 mi
4:54 PM56 °FScattered clouds.12 mph72%30.09 "Hg10 mi
3:54 PM57 °FOvercast.15 mph72%30.11 "Hg10 mi
2:54 PM56 °FOvercast.17 mph75%30.12 "Hg10 mi
1:54 PM57 °FOvercast.12 mph69%30.12 "Hg10 mi
12:54 PM55 °FOvercast.10 mph72%30.13 "Hg10 mi
11:54 AM56 °FOvercast.10 mph72%30.13 "Hg10 mi
10:54 AM53 °FOvercast.8 mph80%30.14 "Hg8 mi
Weather by CustomWeather, © 2016

See weather overviewHow to use our weather pages